Location: ???????
(55.3754°N, 39.3545°E)
Time: 22:12:24
(UTC+00:00)

SJ 16-02 - Pass Details

Date: 14 April 2026
Orbit: 582 x 592 km, 75.0° (Epoch: 13 May)

Event Time Altitude Azimuth Distance (km) Brightness Sun altitude
Rises 20:36:57 0° 334° (NNW) 2,833 6.1 -24.3°
Reaches altitude 10° 20:39:11 10° 337° (NNW) 1,926 4.9 -24.3°
Enters shadow 20:43:18 72° 38° (NE) 623 1.3 -24.5°
